Tracking 29892 objects as of 21-Nov-2024
HD Live streaming from Space Station
objects crossing your sky now

COSMOS 1867 COOLANT

Track COSMOS 1867 COOLANT now!
10-day predictions


NORAD ID: 39664
Int'l Code: 1987-060AB
Perigee: 774.1 km
Apogee: 803.0 km
Inclination: 65.0 °
Period: 100.5 minutes
Semi major axis: 7159 km
RCS: Unknown
Launch date: July 10, 1987
Source: Commonwealth of Independent States (former USSR) (CIS)
Launch site: TYURATAM MISSILE AND SPACE COMPLEX (TTMTR)

Note: This is SATELLITE DEBRIS
Your satellite tracking list
Your tracking list is empty




NASA's NSSDC Master Catalog

Two Line Element Set (TLE):
1 39664U 87060AB  24324.99032472  .00000623  00000-0  26289-3 0  9991
2 39664  65.0051 184.3334 0020204 263.3041  96.5744 14.33087771554257
Source of the keplerian elements: AFSPC